Time,TemperatureF,DewpointF,PressureIn,WindDirection,WindDirectionDegrees,WindSpeedMPH,WindSpeedGustMPH,Humidity,HourlyPrecipIn,Conditions,Clouds,dailyrainin,SoftwareType,DateUTC
2013-01-18 00:03:00,9.1,-5.3,31.89,South,180,0.0,0.0,51,0.00,,,0.00,meteohub,2013-01-18 07:03:00,
2013-01-18 00:09:00,8.6,-5.8,31.89,NE,45,0.0,0.0,51,0.00,,,0.00,meteohub,2013-01-18 07:09:00,
2013-01-18 00:15:00,8.4,-5.6,31.90,SW,225,0.0,0.0,52,0.00,,,0.00,meteohub,2013-01-18 07:15:00,
2013-01-18 00:20:00,8.1,-6.0,31.89,West,270,0.0,0.0,52,0.00,,,0.00,meteohub,2013-01-18 07:20:00,
2013-01-18 00:25:00,8.2,-5.4,31.89,SW,225,0.0,0.0,53,0.00,,,0.00,meteohub,2013-01-18 07:25:00,
2013-01-18 00:30:00,7.9,-5.6,31.89,SW,225,0.0,0.0,53,0.00,,,0.00,meteohub,2013-01-18 07:30:00,
2013-01-18 00:36:00,7.9,-5.6,31.89,SW,225,0.0,0.0,53,0.00,,,0.00,meteohub,2013-01-18 07:36:00,
2013-01-18 00:42:00,7.7,-5.8,31.89,SW,225,0.0,0.0,53,0.00,,,0.00,meteohub,2013-01-18 07:42:00,
2013-01-18 00:47:00,7.5,-6.0,31.89,SW,225,0.0,0.0,53,0.00,,,0.00,meteohub,2013-01-18 07:47:00,
2013-01-18 00:52:00,7.7,-5.4,31.89,SW,225,0.0,0.0,54,0.00,,,0.00,meteohub,2013-01-18 07:52:00,
2013-01-18 00:57:00,7.7,-5.4,31.89,SW,225,0.0,0.0,54,0.00,,,0.00,meteohub,2013-01-18 07:57:00,
2013-01-18 01:02:00,7.7,-5.4,31.89,SW,225,0.0,0.0,54,0.00,,,0.00,meteohub,2013-01-18 08:02:00,
2013-01-18 01:07:00,7.7,-5.4,31.89,SW,225,0.0,0.0,54,0.00,,,0.00,meteohub,2013-01-18 08:07:00,
2013-01-18 01:12:00,7.0,-6.2,31.89,SW,225,0.0,0.0,54,0.00,,,0.00,meteohub,2013-01-18 08:12:00,
2013-01-18 01:18:00,6.4,-6.3,31.89,West,270,0.0,0.0,55,0.00,,,0.00,meteohub,2013-01-18 08:18:00,
2013-01-18 01:23:00,6.3,-6.5,31.89,SW,225,0.0,0.0,55,0.00,,,0.00,meteohub,2013-01-18 08:23:00,
2013-01-18 01:29:00,6.3,-6.5,31.89,South,180,0.0,0.0,55,0.00,,,0.00,meteohub,2013-01-18 08:29:00,
2013-01-18 01:34:00,6.3,-6.5,31.89,SW,225,0.0,0.0,55,0.00,,,0.00,meteohub,2013-01-18 08:34:00,
2013-01-18 01:40:00,6.1,-6.3,31.89,West,270,0.0,0.0,56,0.00,,,0.00,meteohub,2013-01-18 08:40:00,
2013-01-18 01:45:00,6.1,-6.3,31.89,SW,225,0.0,0.0,56,0.00,,,0.00,meteohub,2013-01-18 08:45:00,
2013-01-18 01:51:00,6.1,-6.3,31.89,SW,225,0.0,0.0,56,0.00,,,0.00,meteohub,2013-01-18 08:51:00,
2013-01-18 01:56:00,5.9,-6.3,31.89,SW,225,0.0,0.0,56,0.00,,,0.00,meteohub,2013-01-18 08:56:00,
2013-01-18 02:01:00,6.1,-5.8,31.89,West,270,0.0,0.0,57,0.00,,,0.00,meteohub,2013-01-18 09:01:00,
2013-01-18 02:07:00,6.6,-5.4,31.89,SW,225,0.0,0.0,57,0.00,,,0.00,meteohub,2013-01-18 09:07:00,
2013-01-18 02:12:00,6.6,-5.4,31.89,SW,225,0.0,0.0,57,0.00,,,0.00,meteohub,2013-01-18 09:12:00,
2013-01-18 02:17:00,6.6,-5.4,31.89,West,270,0.0,0.0,57,0.00,,,0.00,meteohub,2013-01-18 09:17:00,
2013-01-18 02:23:00,7.0,-5.4,31.88,SW,225,0.0,0.0,56,0.00,,,0.00,meteohub,2013-01-18 09:23:00,
2013-01-18 02:28:00,7.0,-5.4,31.89,West,270,0.0,0.0,56,0.00,,,0.00,meteohub,2013-01-18 09:28:00,
2013-01-18 02:34:00,7.0,-5.8,31.89,SW,225,0.0,0.0,55,0.00,,,0.00,meteohub,2013-01-18 09:34:00,
2013-01-18 02:40:00,7.0,-5.8,31.88,NW,315,0.0,0.0,55,0.00,,,0.00,meteohub,2013-01-18 09:40:00,
2013-01-18 02:45:00,6.8,-6.0,31.88,SW,225,0.0,0.0,55,0.00,,,0.00,meteohub,2013-01-18 09:45:00,
2013-01-18 02:51:00,6.8,-6.0,31.88,West,270,0.0,0.0,55,0.00,,,0.00,meteohub,2013-01-18 09:51:00,
2013-01-18 02:57:00,6.6,-5.8,31.88,West,270,0.0,0.0,56,0.00,,,0.00,meteohub,2013-01-18 09:57:00,
2013-01-18 03:02:00,6.3,-6.5,31.88,East,90,0.0,0.0,55,0.00,,,0.00,meteohub,2013-01-18 10:02:00,
2013-01-18 03:07:00,6.3,-6.5,31.88,East,90,0.0,0.0,55,0.00,,,0.00,meteohub,2013-01-18 10:07:00,
2013-01-18 03:12:00,5.4,-7.2,31.88,South,180,0.0,0.0,55,0.00,,,0.00,meteohub,2013-01-18 10:12:00,
2013-01-18 03:17:00,5.0,-7.6,31.88,West,270,0.0,0.0,55,0.00,,,0.00,meteohub,2013-01-18 10:17:00,
2013-01-18 03:23:00,4.8,-7.4,31.88,West,270,0.0,0.0,56,0.00,,,0.00,meteohub,2013-01-18 10:23:00,
2013-01-18 03:28:00,4.5,-7.4,31.87,SW,225,0.0,0.0,57,0.00,,,0.00,meteohub,2013-01-18 10:28:00,
2013-01-18 03:34:00,4.8,-6.7,31.88,SW,225,0.0,0.0,58,0.00,,,0.00,meteohub,2013-01-18 10:34:00,
2013-01-18 03:39:00,5.2,-6.7,31.88,West,270,0.0,0.0,57,0.00,,,0.00,meteohub,2013-01-18 10:39:00,
2013-01-18 03:45:00,5.4,-6.5,31.87,NW,315,0.0,0.0,57,0.00,,,0.00,meteohub,2013-01-18 10:45:00,
2013-01-18 03:50:00,5.4,-6.5,31.87,SW,225,0.0,0.0,57,0.00,,,0.00,meteohub,2013-01-18 10:50:00,
2013-01-18 03:56:00,5.2,-6.7,31.87,SW,225,0.0,0.0,57,0.00,,,0.00,meteohub,2013-01-18 10:56:00,
2013-01-18 04:01:00,5.0,-6.9,31.87,SW,225,0.0,0.0,57,0.00,,,0.00,meteohub,2013-01-18 11:01:00,
2013-01-18 04:07:00,4.8,-6.7,31.87,SW,225,0.0,0.0,58,0.00,,,0.00,meteohub,2013-01-18 11:07:00,
2013-01-18 04:12:00,4.6,-6.9,31.86,SW,225,0.0,0.0,58,0.00,,,0.00,meteohub,2013-01-18 11:12:00,
2013-01-18 04:17:00,4.6,-6.9,31.87,West,270,0.0,0.0,58,0.00,,,0.00,meteohub,2013-01-18 11:17:00,
2013-01-18 04:22:00,4.6,-6.9,31.86,SW,225,0.0,0.0,58,0.00,,,0.00,meteohub,2013-01-18 11:22:00,
2013-01-18 04:27:00,5.0,-6.9,31.86,NE,45,0.0,0.0,57,0.00,,,0.00,meteohub,2013-01-18 11:27:00,
2013-01-18 04:32:00,5.2,-6.7,31.86,SW,225,0.0,0.0,57,0.00,,,0.00,meteohub,2013-01-18 11:32:00,
2013-01-18 04:37:00,5.0,-6.9,31.86,SW,225,0.0,0.0,57,0.00,,,0.00,meteohub,2013-01-18 11:37:00,
2013-01-18 04:42:00,5.5,-6.3,31.86,SW,225,0.0,0.0,57,0.00,,,0.00,meteohub,2013-01-18 11:42:00,
2013-01-18 04:47:00,6.4,-5.3,31.86,NW,315,0.0,0.0,58,0.00,,,0.00,meteohub,2013-01-18 11:47:00,
2013-01-18 04:52:00,7.2,-5.3,31.86,NW,315,0.0,0.0,56,0.00,,,0.00,meteohub,2013-01-18 11:52:00,
2013-01-18 04:57:00,8.1,-4.4,31.86,North,0,0.0,0.0,56,0.00,,,0.00,meteohub,2013-01-18 11:57:00,
2013-01-18 05:03:00,8.2,-4.2,31.86,North,0,0.0,0.0,56,0.00,,,0.00,meteohub,2013-01-18 12:03:00,
2013-01-18 05:08:00,8.4,-4.7,31.86,West,270,0.0,0.0,54,0.00,,,0.00,meteohub,2013-01-18 12:08:00,
2013-01-18 05:14:00,8.6,-5.4,31.86,West,270,0.0,2.0,52,0.00,,,0.00,meteohub,2013-01-18 12:14:00,
2013-01-18 05:19:00,9.9,-4.7,31.86,West,270,3.0,3.0,51,0.00,,,0.00,meteohub,2013-01-18 12:19:00,
2013-01-18 05:25:00,10.2,-5.1,31.86,West,270,2.0,4.0,49,0.00,,,0.00,meteohub,2013-01-18 12:25:00,
2013-01-18 05:30:00,10.6,-4.0,31.86,West,270,4.0,4.0,51,0.00,,,0.00,meteohub,2013-01-18 12:30:00,
2013-01-18 05:36:00,11.7,-3.5,31.86,West,270,4.0,4.0,50,0.00,,,0.00,meteohub,2013-01-18 12:36:00,
2013-01-18 05:42:00,12.4,-3.6,31.86,West,270,3.0,4.0,48,0.00,,,0.00,meteohub,2013-01-18 12:42:00,
2013-01-18 05:47:00,13.1,-3.3,31.86,NW,315,0.0,4.0,47,0.00,,,0.00,meteohub,2013-01-18 12:47:00,
2013-01-18 05:52:00,13.1,-3.8,31.86,West,270,4.0,4.0,46,0.00,,,0.00,meteohub,2013-01-18 12:52:00,
2013-01-18 05:57:00,12.9,-4.4,31.86,West,270,4.0,4.0,45,0.00,,,0.00,meteohub,2013-01-18 12:57:00,
2013-01-18 06:02:00,13.3,-4.2,31.86,West,270,4.0,5.0,45,0.00,,,0.00,meteohub,2013-01-18 13:02:00,
2013-01-18 06:08:00,13.6,-3.8,31.86,West,270,5.0,6.0,45,0.00,,,0.00,meteohub,2013-01-18 13:08:00,
2013-01-18 06:14:00,13.3,-4.2,31.87,WNW,293,2.0,6.0,45,0.00,,,0.00,meteohub,2013-01-18 13:14:00,
2013-01-18 06:20:00,13.5,-4.0,31.87,West,270,4.0,6.0,45,0.00,,,0.00,meteohub,2013-01-18 13:20:00,
2013-01-18 06:25:00,13.6,-3.8,31.87,West,270,6.0,6.0,45,0.00,,,0.00,meteohub,2013-01-18 13:25:00,
2013-01-18 06:31:00,13.6,-4.2,31.87,West,270,3.0,6.0,44,0.00,,,0.00,meteohub,2013-01-18 13:31:00,
2013-01-18 06:36:00,13.6,-4.2,31.86,West,270,4.0,6.0,44,0.00,,,0.00,meteohub,2013-01-18 13:36:00,
2013-01-18 06:42:00,13.5,-4.0,31.87,West,270,4.0,6.0,45,0.00,,,0.00,meteohub,2013-01-18 13:42:00,
2013-01-18 06:47:00,13.6,-3.8,31.87,West,270,3.0,6.0,45,0.00,,,0.00,meteohub,2013-01-18 13:47:00,
2013-01-18 06:52:00,13.8,-3.6,31.86,NW,315,4.0,6.0,45,0.00,,,0.00,meteohub,2013-01-18 13:52:00,
2013-01-18 06:57:00,14.2,-3.8,31.86,NW,315,6.0,8.0,44,0.00,,,0.00,meteohub,2013-01-18 13:57:00,
2013-01-18 07:02:00,14.5,-3.8,31.87,NW,315,4.0,8.0,43,0.00,,,0.00,meteohub,2013-01-18 14:02:00,
2013-01-18 07:07:00,14.5,-3.8,31.87,NW,315,4.0,6.0,43,0.00,,,0.00,meteohub,2013-01-18 14:07:00,
2013-01-18 07:12:00,14.2,-4.2,31.87,West,270,3.0,6.0,43,0.00,,,0.00,meteohub,2013-01-18 14:12:00,
2013-01-18 07:18:00,14.4,-4.0,31.87,West,270,3.0,5.0,43,0.00,,,0.00,meteohub,2013-01-18 14:18:00,
2013-01-18 07:23:00,14.5,-3.8,31.87,NW,315,5.0,7.0,43,0.00,,,0.00,meteohub,2013-01-18 14:23:00,
2013-01-18 07:28:00,15.1,-3.5,31.87,NW,315,2.0,7.0,43,0.00,,,0.00,meteohub,2013-01-18 14:28:00,
2013-01-18 07:34:00,14.9,-3.6,31.87,NW,315,2.0,7.0,43,0.00,,,0.00,meteohub,2013-01-18 14:34:00,
2013-01-18 07:40:00,14.7,-3.6,31.87,NW,315,1.0,7.0,43,0.00,,,0.00,meteohub,2013-01-18 14:40:00,
2013-01-18 07:45:00,14.4,-4.0,31.87,West,270,2.0,4.0,43,0.00,,,0.00,meteohub,2013-01-18 14:45:00,
2013-01-18 07:51:00,14.9,-3.6,31.87,West,270,4.0,4.0,43,0.00,,,0.00,meteohub,2013-01-18 14:51:00,
2013-01-18 07:56:00,15.4,-3.1,31.87,NW,315,3.0,6.0,43,0.00,,,0.00,meteohub,2013-01-18 14:56:00,
2013-01-18 08:02:00,15.8,-3.3,31.87,NW,315,4.0,6.0,42,0.00,,,0.00,meteohub,2013-01-18 15:02:00,
2013-01-18 08:07:00,16.7,-3.5,31.87,West,270,6.0,7.0,40,0.00,,,0.00,meteohub,2013-01-18 15:07:00,
2013-01-18 08:12:00,18.0,-4.0,31.87,NW,315,6.0,7.0,37,0.00,,,0.00,meteohub,2013-01-18 15:12:00,
2013-01-18 08:17:00,18.9,-4.4,31.87,NW,315,4.0,6.0,35,0.00,,,0.00,meteohub,2013-01-18 15:17:00,
2013-01-18 08:22:00,19.4,-2.0,31.87,West,270,4.0,9.0,38,0.00,,,0.00,meteohub,2013-01-18 15:22:00,
2013-01-18 08:27:00,19.9,-2.2,31.87,West,270,3.0,9.0,37,0.00,,,0.00,meteohub,2013-01-18 15:27:00,
2013-01-18 08:32:00,21.4,-2.0,31.87,NW,315,5.0,6.0,35,0.00,,,0.00,meteohub,2013-01-18 15:32:00,
2013-01-18 08:37:00,23.0,-1.8,31.87,West,270,5.0,8.0,33,0.00,,,0.00,meteohub,2013-01-18 15:37:00,
2013-01-18 08:43:00,23.9,-2.4,31.87,NW,315,3.0,8.0,31,0.00,,,0.00,meteohub,2013-01-18 15:43:00,
2013-01-18 08:48:00,24.6,-2.4,31.88,NW,315,4.0,8.0,30,0.00,,,0.00,meteohub,2013-01-18 15:48:00,
2013-01-18 08:53:00,25.2,-3.5,31.87,WNW,293,3.0,8.0,28,0.00,,,0.00,meteohub,2013-01-18 15:53:00,
2013-01-18 08:59:00,25.7,-2.9,31.87,NW,315,4.0,5.0,28,0.00,,,0.00,meteohub,2013-01-18 15:59:00,
2013-01-18 09:04:00,26.2,-2.4,31.88,NW,315,6.0,6.0,28,0.00,,,0.00,meteohub,2013-01-18 16:04:00,
2013-01-18 09:10:00,27.1,-4.0,31.88,North,0,3.0,6.0,25,0.00,,,0.00,meteohub,2013-01-18 16:10:00,
2013-01-18 09:15:00,27.9,-3.5,31.88,West,270,4.0,8.0,25,0.00,,,0.00,meteohub,2013-01-18 16:15:00,
2013-01-18 09:21:00,28.8,-0.2,31.88,SW,225,4.0,8.0,28,0.00,,,0.00,meteohub,2013-01-18 16:21:00,
2013-01-18 09:26:00,29.3,0.1,31.88,NNW,338,5.0,8.0,28,0.00,,,0.00,meteohub,2013-01-18 16:26:00,
2013-01-18 09:31:00,29.5,0.3,31.87,West,270,5.0,10.0,28,0.00,,,0.00,meteohub,2013-01-18 16:31:00,
2013-01-18 09:37:00,30.4,0.3,31.88,North,0,2.0,10.0,27,0.00,,,0.00,meteohub,2013-01-18 16:37:00,
2013-01-18 09:42:00,31.5,1.4,31.88,NW,315,4.0,10.0,27,0.00,,,0.00,meteohub,2013-01-18 16:42:00,
2013-01-18 09:47:00,32.2,0.3,31.88,West,270,3.0,9.0,25,0.00,,,0.00,meteohub,2013-01-18 16:47:00,
2013-01-18 09:53:00,32.7,0.7,31.87,NW,315,2.0,9.0,25,0.00,,,0.00,meteohub,2013-01-18 16:53:00,
2013-01-18 09:58:00,33.6,2.3,31.87,NW,315,4.0,9.0,26,0.00,,,0.00,meteohub,2013-01-18 16:58:00,
2013-01-18 10:04:00,34.3,1.2,31.88,North,0,8.0,8.0,24,0.00,,,0.00,meteohub,2013-01-18 17:04:00,
2013-01-18 10:10:00,34.7,1.6,31.88,NE,45,4.0,8.0,24,0.00,,,0.00,meteohub,2013-01-18 17:10:00,
2013-01-18 10:15:00,35.4,2.1,31.88,North,0,5.0,8.0,24,0.00,,,0.00,meteohub,2013-01-18 17:15:00,
2013-01-18 10:21:00,35.8,1.6,31.87,South,180,2.0,7.0,23,0.00,,,0.00,meteohub,2013-01-18 17:21:00,
2013-01-18 10:26:00,36.1,1.9,31.87,NE,45,7.0,8.0,23,0.00,,,0.00,meteohub,2013-01-18 17:26:00,
2013-01-18 10:32:00,36.0,1.8,31.87,North,0,6.0,8.0,23,0.00,,,0.00,meteohub,2013-01-18 17:32:00,
2013-01-18 10:37:00,35.8,0.7,31.87,NW,315,4.0,8.0,22,0.00,,,0.00,meteohub,2013-01-18 17:37:00,
2013-01-18 10:43:00,35.8,0.7,31.86,SE,135,4.0,8.0,22,0.00,,,0.00,meteohub,2013-01-18 17:43:00,
2013-01-18 10:48:00,35.6,0.5,31.86,East,90,7.0,8.0,22,0.00,,,0.00,meteohub,2013-01-18 17:48:00,
2013-01-18 10:54:00,35.6,0.5,31.86,West,270,3.0,7.0,22,0.00,,,0.00,meteohub,2013-01-18 17:54:00,
2013-01-18 10:59:00,36.3,1.0,31.86,NW,315,3.0,10.0,22,0.00,,,0.00,meteohub,2013-01-18 17:59:00,
2013-01-18 11:04:00,36.7,1.4,31.86,NW,315,6.0,10.0,22,0.00,,,0.00,meteohub,2013-01-18 18:04:00,
2013-01-18 11:10:00,37.6,5.7,31.86,West,270,4.0,8.0,26,0.00,,,0.00,meteohub,2013-01-18 18:10:00,
2013-01-18 11:15:00,38.5,6.6,31.85,NE,45,6.0,8.0,26,0.00,,,0.00,meteohub,2013-01-18 18:15:00,
2013-01-18 11:20:00,38.5,6.6,31.85,NE,45,6.0,11.0,26,0.00,,,0.00,meteohub,2013-01-18 18:20:00,
2013-01-18 11:26:00,39.7,5.9,31.85,East,90,3.0,11.0,24,0.00,,,0.00,meteohub,2013-01-18 18:26:00,
2013-01-18 11:31:00,40.1,6.3,31.85,North,0,11.0,11.0,24,0.00,,,0.00,meteohub,2013-01-18 18:31:00,
2013-01-18 11:37:00,40.6,6.6,31.84,NW,315,10.0,11.0,24,0.00,,,0.00,meteohub,2013-01-18 18:37:00,
2013-01-18 11:42:00,41.0,6.1,31.84,East,90,6.0,11.0,23,0.00,,,0.00,meteohub,2013-01-18 18:42:00,
2013-01-18 11:47:00,41.4,6.3,31.84,North,0,9.0,11.0,23,0.00,,,0.00,meteohub,2013-01-18 18:47:00,
2013-01-18 11:52:00,41.5,6.4,31.84,South,180,4.0,11.0,23,0.00,,,0.00,meteohub,2013-01-18 18:52:00,
2013-01-18 11:57:00,42.1,7.0,31.83,NW,315,8.0,11.0,23,0.00,,,0.00,meteohub,2013-01-18 18:57:00,
2013-01-18 12:02:00,41.9,5.7,31.83,SW,225,4.0,11.0,22,0.00,,,0.00,meteohub,2013-01-18 19:02:00,
2013-01-18 12:07:00,41.9,5.7,31.83,NW,315,4.0,11.0,22,0.00,,,0.00,meteohub,2013-01-18 19:07:00,
2013-01-18 12:12:00,42.6,7.3,31.83,West,270,9.0,11.0,23,0.00,,,0.00,meteohub,2013-01-18 19:12:00,
2013-01-18 12:17:00,42.6,7.3,31.83,West,270,5.0,11.0,23,0.00,,,0.00,meteohub,2013-01-18 19:17:00,
2013-01-18 12:22:00,42.4,7.2,31.83,West,270,7.0,11.0,23,0.00,,,0.00,meteohub,2013-01-18 19:22:00,
2013-01-18 12:27:00,42.4,7.2,31.83,NNW,338,7.0,9.0,23,0.00,,,0.00,meteohub,2013-01-18 19:27:00,
2013-01-18 12:32:00,42.3,7.2,31.82,North,0,7.0,11.0,23,0.00,,,0.00,meteohub,2013-01-18 19:32:00,
2013-01-18 12:38:00,42.3,7.2,31.82,NE,45,8.0,11.0,23,0.00,,,0.00,meteohub,2013-01-18 19:38:00,
2013-01-18 12:44:00,42.4,7.2,31.82,NNE,23,5.0,11.0,23,0.00,,,0.00,meteohub,2013-01-18 19:44:00,
2013-01-18 12:50:00,42.4,7.2,31.81,North,0,5.0,14.0,23,0.00,,,0.00,meteohub,2013-01-18 19:50:00,
2013-01-18 12:55:00,42.1,7.0,31.81,NW,315,9.0,14.0,23,0.00,,,0.00,meteohub,2013-01-18 19:55:00,
2013-01-18 13:01:00,41.9,6.8,31.81,NW,315,2.0,9.0,23,0.00,,,0.00,meteohub,2013-01-18 20:01:00,
2013-01-18 13:07:00,41.9,6.8,31.81,NW,315,2.0,9.0,23,0.00,,,0.00,meteohub,2013-01-18 20:07:00,
2013-01-18 13:12:00,42.3,7.2,31.81,NE,45,8.0,9.0,23,0.00,,,0.00,meteohub,2013-01-18 20:12:00,
2013-01-18 13:17:00,41.9,6.8,31.81,SW,225,3.0,9.0,23,0.00,,,0.00,meteohub,2013-01-18 20:17:00,
2013-01-18 13:22:00,41.5,6.4,31.81,SW,225,4.0,10.0,23,0.00,,,0.00,meteohub,2013-01-18 20:22:00,
2013-01-18 13:27:00,41.5,6.4,31.81,South,180,4.0,10.0,23,0.00,,,0.00,meteohub,2013-01-18 20:27:00,
2013-01-18 13:32:00,41.2,6.3,31.81,WNW,293,7.0,10.0,23,0.00,,,0.00,meteohub,2013-01-18 20:32:00,
2013-01-18 13:37:00,40.5,6.4,31.81,NE,45,5.0,9.0,24,0.00,,,0.00,meteohub,2013-01-18 20:37:00,
2013-01-18 13:42:00,39.7,5.9,31.81,East,90,5.0,8.0,24,0.00,,,0.00,meteohub,2013-01-18 20:42:00,
2013-01-18 13:47:00,39.4,5.5,31.81,North,0,5.0,8.0,24,0.00,,,0.00,meteohub,2013-01-18 20:47:00,
2013-01-18 13:52:00,39.0,6.1,31.81,West,270,4.0,13.0,25,0.00,,,0.00,meteohub,2013-01-18 20:52:00,
2013-01-18 13:57:00,38.7,5.9,31.81,South,180,4.0,13.0,25,0.00,,,0.00,meteohub,2013-01-18 20:57:00,
2013-01-18 14:02:00,38.5,5.7,31.81,ENE,68,5.0,13.0,25,0.00,,,0.00,meteohub,2013-01-18 21:02:00,
2013-01-18 14:07:00,38.1,5.4,31.81,SW,225,6.0,9.0,25,0.00,,,0.00,meteohub,2013-01-18 21:07:00,
2013-01-18 14:12:00,37.9,5.2,31.81,West,270,4.0,9.0,25,0.00,,,0.00,meteohub,2013-01-18 21:12:00,
2013-01-18 14:17:00,37.9,5.2,31.81,NW,315,7.0,9.0,25,0.00,,,0.00,meteohub,2013-01-18 21:17:00,
2013-01-18 14:23:00,37.4,4.8,31.81,West,270,9.0,12.0,25,0.00,,,0.00,meteohub,2013-01-18 21:23:00,
2013-01-18 14:28:00,37.4,4.8,31.81,NW,315,3.0,12.0,25,0.00,,,0.00,meteohub,2013-01-18 21:28:00,
2013-01-18 14:34:00,37.4,4.8,31.81,NE,45,6.0,12.0,25,0.00,,,0.00,meteohub,2013-01-18 21:34:00,
2013-01-18 14:39:00,37.8,5.0,31.81,NW,315,7.0,11.0,25,0.00,,,0.00,meteohub,2013-01-18 21:39:00,
2013-01-18 14:45:00,37.6,5.0,31.81,NNW,338,8.0,11.0,25,0.00,,,0.00,meteohub,2013-01-18 21:45:00,
2013-01-18 14:50:00,37.4,4.8,31.81,South,180,8.0,9.0,25,0.00,,,0.00,meteohub,2013-01-18 21:50:00,
2013-01-18 14:56:00,37.4,4.8,31.81,West,270,7.0,9.0,25,0.00,,,0.00,meteohub,2013-01-18 21:56:00,
2013-01-18 15:01:00,37.4,4.8,31.81,SE,135,8.0,9.0,25,0.00,,,0.00,meteohub,2013-01-18 22:01:00,
2013-01-18 15:07:00,37.4,4.8,31.81,SE,135,8.0,9.0,25,0.00,,,0.00,meteohub,2013-01-18 22:07:00,
2013-01-18 15:12:00,37.0,0.7,31.81,North,0,2.0,8.0,21,0.00,,,0.00,meteohub,2013-01-18 22:12:00,
2013-01-18 15:17:00,36.3,0.1,31.81,NE,45,4.0,8.0,21,0.00,,,0.00,meteohub,2013-01-18 22:17:00,
2013-01-18 15:22:00,35.8,-0.4,31.81,North,0,5.0,8.0,21,0.00,,,0.00,meteohub,2013-01-18 22:22:00,
2013-01-18 15:27:00,35.4,0.3,31.81,East,90,4.0,8.0,22,0.00,,,0.00,meteohub,2013-01-18 22:27:00,
2013-01-18 15:32:00,35.2,0.1,31.81,WSW,248,8.0,9.0,22,0.00,,,0.00,meteohub,2013-01-18 22:32:00,
2013-01-18 15:37:00,35.4,0.3,31.81,South,180,6.0,9.0,22,0.00,,,0.00,meteohub,2013-01-18 22:37:00,
2013-01-18 15:42:00,35.6,-0.6,31.81,ESE,113,8.0,9.0,21,0.00,,,0.00,meteohub,2013-01-18 22:42:00,
2013-01-18 15:47:00,35.8,-0.4,31.81,NE,45,6.0,8.0,21,0.00,,,0.00,meteohub,2013-01-18 22:47:00,
2013-01-18 15:52:00,34.9,0.0,31.81,NE,45,9.0,9.0,22,0.00,,,0.00,meteohub,2013-01-18 22:52:00,
2013-01-18 15:57:00,34.3,-0.6,31.81,SE,135,5.0,9.0,22,0.00,,,0.00,meteohub,2013-01-18 22:57:00,
2013-01-18 16:02:00,33.6,-0.2,31.81,SW,225,2.0,9.0,23,0.00,,,0.00,meteohub,2013-01-18 23:02:00,
2013-01-18 16:07:00,33.3,-0.6,31.81,West,270,5.0,9.0,23,0.00,,,0.00,meteohub,2013-01-18 23:07:00,
2013-01-18 16:13:00,32.9,-0.9,31.81,North,0,4.0,11.0,23,0.00,,,0.00,meteohub,2013-01-18 23:13:00,
2013-01-18 16:18:00,32.4,-1.3,31.81,NW,315,7.0,11.0,23,0.00,,,0.00,meteohub,2013-01-18 23:18:00,
2013-01-18 16:24:00,32.0,-1.7,31.81,West,270,4.0,8.0,23,0.00,,,0.00,meteohub,2013-01-18 23:24:00,
2013-01-18 16:30:00,31.5,-1.1,31.82,NW,315,4.0,8.0,24,0.00,,,0.00,meteohub,2013-01-18 23:30:00,
2013-01-18 16:35:00,30.7,-1.8,31.82,NW,315,6.0,8.0,24,0.00,,,0.00,meteohub,2013-01-18 23:35:00,
2013-01-18 16:40:00,30.2,-2.2,31.82,NW,315,8.0,8.0,24,0.00,,,0.00,meteohub,2013-01-18 23:40:00,
2013-01-18 16:46:00,29.5,-1.1,31.82,West,270,7.0,8.0,26,0.00,,,0.00,meteohub,2013-01-18 23:46:00,
2013-01-18 16:52:00,28.9,-1.7,31.82,NW,315,3.0,8.0,26,0.00,,,0.00,meteohub,2013-01-18 23:52:00,
2013-01-18 16:57:00,28.6,-2.0,31.82,NW,315,3.0,8.0,26,0.00,,,0.00,meteohub,2013-01-18 23:57:00,
2013-01-18 17:02:00,28.2,-5.8,31.82,West,270,8.0,8.0,22,0.00,,,0.00,meteohub,2013-01-19 00:02:00,
2013-01-18 17:07:00,28.2,-5.8,31.81,West,270,8.0,8.0,22,0.00,,,0.00,meteohub,2013-01-19 00:07:00,
2013-01-18 17:12:00,27.1,-6.7,31.81,NW,315,4.0,8.0,22,0.00,,,0.00,meteohub,2013-01-19 00:12:00,
2013-01-18 17:17:00,27.0,-6.0,31.82,NW,315,2.0,8.0,23,0.00,,,0.00,meteohub,2013-01-19 00:17:00,
2013-01-18 17:22:00,26.8,-7.1,31.82,West,270,3.0,8.0,22,0.00,,,0.00,meteohub,2013-01-19 00:22:00,
2013-01-18 17:27:00,26.6,-7.1,31.82,North,0,2.0,7.0,22,0.00,,,0.00,meteohub,2013-01-19 00:27:00,
2013-01-18 17:32:00,26.6,-7.1,31.82,SW,225,3.0,8.0,22,0.00,,,0.00,meteohub,2013-01-19 00:32:00,
2013-01-18 17:37:00,26.4,-5.4,31.82,NW,315,4.0,8.0,24,0.00,,,0.00,meteohub,2013-01-19 00:37:00,
2013-01-18 17:43:00,26.2,-5.6,31.82,SW,225,0.0,8.0,24,0.00,,,0.00,meteohub,2013-01-19 00:43:00,
2013-01-18 17:48:00,26.1,-5.8,31.82,North,0,1.0,5.0,24,0.00,,,0.00,meteohub,2013-01-19 00:48:00,
2013-01-18 17:54:00,25.7,-6.2,31.82,West,270,3.0,5.0,24,0.00,,,0.00,meteohub,2013-01-19 00:54:00,
2013-01-18 17:59:00,25.5,-6.3,31.82,West,270,4.0,5.0,24,0.00,,,0.00,meteohub,2013-01-19 00:59:00,
2013-01-18 18:05:00,25.3,-5.6,31.82,NW,315,3.0,5.0,25,0.00,,,0.00,meteohub,2013-01-19 01:05:00,
2013-01-18 18:10:00,25.0,-6.0,31.82,West,270,0.0,5.0,25,0.00,,,0.00,meteohub,2013-01-19 01:10:00,
2013-01-18 18:16:00,24.6,-5.4,31.82,West,270,2.0,5.0,26,0.00,,,0.00,meteohub,2013-01-19 01:16:00,
2013-01-18 18:21:00,24.3,-5.6,31.82,NW,315,2.0,5.0,26,0.00,,,0.00,meteohub,2013-01-19 01:21:00,
2013-01-18 18:26:00,23.9,-6.0,31.82,SW,225,5.0,5.0,26,0.00,,,0.00,meteohub,2013-01-19 01:26:00,
2013-01-18 18:31:00,23.7,-4.7,31.83,NW,315,2.0,5.0,28,0.00,,,0.00,meteohub,2013-01-19 01:31:00,
2013-01-18 18:37:00,23.5,-4.0,31.82,West,270,2.0,5.0,29,0.00,,,0.00,meteohub,2013-01-19 01:37:00,
2013-01-18 18:42:00,23.4,-4.2,31.83,West,270,4.0,5.0,29,0.00,,,0.00,meteohub,2013-01-19 01:42:00,
2013-01-18 18:47:00,23.4,-4.2,31.82,NW,315,2.0,4.0,29,0.00,,,0.00,meteohub,2013-01-19 01:47:00,
2013-01-18 18:52:00,23.2,-3.6,31.83,West,270,0.0,4.0,30,0.00,,,0.00,meteohub,2013-01-19 01:52:00,
2013-01-18 18:57:00,22.8,-3.3,31.82,North,0,0.0,5.0,31,0.00,,,0.00,meteohub,2013-01-19 01:57:00,
2013-01-18 19:02:00,22.6,-3.5,31.82,South,180,2.0,5.0,31,0.00,,,0.00,meteohub,2013-01-19 02:02:00,
2013-01-18 19:07:00,22.6,-3.5,31.83,South,180,2.0,5.0,31,0.00,,,0.00,meteohub,2013-01-19 02:07:00,
2013-01-18 19:13:00,22.1,-4.0,31.83,SSW,203,4.0,5.0,31,0.00,,,0.00,meteohub,2013-01-19 02:13:00,
2013-01-18 19:18:00,22.1,-3.3,31.83,SW,225,2.0,7.0,32,0.00,,,0.00,meteohub,2013-01-19 02:18:00,
2013-01-18 19:24:00,21.7,-3.6,31.83,SW,225,0.0,7.0,32,0.00,,,0.00,meteohub,2013-01-19 02:24:00,
2013-01-18 19:30:00,21.4,-3.3,31.83,NW,315,4.0,7.0,33,0.00,,,0.00,meteohub,2013-01-19 02:30:00,
2013-01-18 19:35:00,21.2,-2.7,31.83,NW,315,3.0,4.0,34,0.00,,,0.00,meteohub,2013-01-19 02:35:00,
2013-01-18 19:41:00,20.8,-2.6,31.83,West,270,4.0,4.0,35,0.00,,,0.00,meteohub,2013-01-19 02:41:00,
2013-01-18 19:46:00,20.7,-2.0,31.82,WNW,293,0.0,6.0,36,0.00,,,0.00,meteohub,2013-01-19 02:46:00,
2013-01-18 19:52:00,20.1,-2.6,31.82,West,270,4.0,6.0,36,0.00,,,0.00,meteohub,2013-01-19 02:52:00,
2013-01-18 19:57:00,19.6,-2.6,31.81,West,270,4.0,6.0,37,0.00,,,0.00,meteohub,2013-01-19 02:57:00,
2013-01-18 20:02:00,19.4,-2.0,31.81,West,270,2.0,6.0,38,0.00,,,0.00,meteohub,2013-01-19 03:02:00,
2013-01-18 20:07:00,19.2,-4.0,31.81,West,270,4.0,6.0,35,0.00,,,0.00,meteohub,2013-01-19 03:07:00,
2013-01-18 20:12:00,19.0,-4.2,31.82,SW,225,4.0,6.0,35,0.00,,,0.00,meteohub,2013-01-19 03:12:00,
2013-01-18 20:17:00,18.9,-4.4,31.81,NW,315,2.0,6.0,35,0.00,,,0.00,meteohub,2013-01-19 03:17:00,
2013-01-18 20:22:00,18.5,-4.5,31.82,SW,225,4.0,5.0,35,0.00,,,0.00,meteohub,2013-01-19 03:22:00,
2013-01-18 20:27:00,18.1,-4.4,31.82,West,270,5.0,5.0,36,0.00,,,0.00,meteohub,2013-01-19 03:27:00,
2013-01-18 20:32:00,18.1,-3.8,31.81,West,270,4.0,6.0,37,0.00,,,0.00,meteohub,2013-01-19 03:32:00,
2013-01-18 20:37:00,18.1,-3.8,31.82,West,270,7.0,7.0,37,0.00,,,0.00,meteohub,2013-01-19 03:37:00,
2013-01-18 20:42:00,18.1,-4.4,31.82,SW,225,6.0,7.0,36,0.00,,,0.00,meteohub,2013-01-19 03:42:00,
2013-01-18 20:48:00,18.0,-4.5,31.82,West,270,5.0,7.0,36,0.00,,,0.00,meteohub,2013-01-19 03:48:00,
2013-01-18 20:53:00,18.1,-4.4,31.82,West,270,7.0,7.0,36,0.00,,,0.00,meteohub,2013-01-19 03:53:00,
2013-01-18 20:59:00,18.3,-4.7,31.82,West,270,5.0,7.0,35,0.00,,,0.00,meteohub,2013-01-19 03:59:00,
2013-01-18 21:04:00,18.3,-4.7,31.82,North,0,7.0,8.0,35,0.00,,,0.00,meteohub,2013-01-19 04:04:00,
2013-01-18 21:10:00,18.5,-5.3,31.82,West,270,5.0,8.0,34,0.00,,,0.00,meteohub,2013-01-19 04:10:00,
2013-01-18 21:16:00,18.9,-4.9,31.82,West,270,8.0,8.0,34,0.00,,,0.00,meteohub,2013-01-19 04:16:00,
2013-01-18 21:22:00,19.0,-4.7,31.82,West,270,5.0,8.0,34,0.00,,,0.00,meteohub,2013-01-19 04:22:00,
2013-01-18 21:27:00,19.0,-5.3,31.82,West,270,4.0,8.0,33,0.00,,,0.00,meteohub,2013-01-19 04:27:00,
2013-01-18 21:32:00,18.7,-5.6,31.82,West,270,4.0,8.0,33,0.00,,,0.00,meteohub,2013-01-19 04:32:00,
2013-01-18 21:37:00,18.7,-6.3,31.81,West,270,0.0,5.0,32,0.00,,,0.00,meteohub,2013-01-19 04:37:00,
2013-01-18 21:43:00,18.7,-6.3,31.81,West,270,3.0,5.0,32,0.00,,,0.00,meteohub,2013-01-19 04:43:00,
2013-01-18 21:48:00,18.7,-6.3,31.82,West,270,3.0,5.0,32,0.00,,,0.00,meteohub,2013-01-19 04:48:00,
2013-01-18 21:53:00,18.5,-7.1,31.82,West,270,2.0,4.0,31,0.00,,,0.00,meteohub,2013-01-19 04:53:00,
2013-01-18 21:59:00,18.1,-7.4,31.82,West,270,0.0,4.0,31,0.00,,,0.00,meteohub,2013-01-19 04:59:00,
2013-01-18 22:00:00,18.1,-7.4,31.82,SW,225,0.0,4.0,31,0.00,,,0.00,meteohub,2013-01-19 05:00:00,
2013-01-18 22:02:00,18.1,-7.4,31.82,SW,225,0.0,4.0,31,0.00,,,0.00,meteohub,2013-01-19 05:02:00,
2013-01-18 22:03:00,18.0,-7.6,31.81,SW,225,0.0,4.0,31,0.00,,,0.00,meteohub,2013-01-19 05:03:00,
2013-01-18 22:04:00,17.8,-7.8,31.81,SW,225,0.0,4.0,31,0.00,,,0.00,meteohub,2013-01-19 05:04:00,
2013-01-18 22:09:00,16.9,-8.0,31.81,NW,315,0.0,4.0,32,0.00,,,0.00,meteohub,2013-01-19 05:09:00,
2013-01-18 22:15:00,16.3,-8.3,31.81,SW,225,0.0,0.0,32,0.00,,,0.00,meteohub,2013-01-19 05:15:00,
2013-01-18 22:21:00,15.8,-8.1,31.81,West,270,0.0,0.0,33,0.00,,,0.00,meteohub,2013-01-19 05:21:00,
2013-01-18 22:26:00,15.6,-7.2,31.81,SW,225,0.0,2.0,35,0.00,,,0.00,meteohub,2013-01-19 05:26:00,
2013-01-18 22:32:00,15.6,-7.2,31.81,West,270,4.0,4.0,35,0.00,,,0.00,meteohub,2013-01-19 05:32:00,
2013-01-18 22:37:00,16.0,-7.4,31.81,West,270,4.0,5.0,34,0.00,,,0.00,meteohub,2013-01-19 05:37:00,
2013-01-18 22:42:00,16.2,-7.2,31.81,West,270,3.0,5.0,34,0.00,,,0.00,meteohub,2013-01-19 05:42:00,
2013-01-18 22:47:00,16.5,-6.9,31.81,West,270,3.0,4.0,34,0.00,,,0.00,meteohub,2013-01-19 05:47:00,
2013-01-18 22:52:00,16.5,-7.6,31.81,West,270,4.0,5.0,33,0.00,,,0.00,meteohub,2013-01-19 05:52:00,
2013-01-18 22:57:00,16.5,-7.6,31.81,SW,225,0.0,5.0,33,0.00,,,0.00,meteohub,2013-01-19 05:57:00,
2013-01-18 23:02:00,16.3,-7.8,31.81,West,270,0.0,5.0,33,0.00,,,0.00,meteohub,2013-01-19 06:02:00,
2013-01-18 23:07:00,16.3,-7.8,31.80,West,270,0.0,4.0,33,0.00,,,0.00,meteohub,2013-01-19 06:07:00,
2013-01-18 23:13:00,17.2,-7.6,31.80,West,270,3.0,0.0,32,0.00,,,0.00,meteohub,2013-01-19 06:13:00,
2013-01-18 23:19:00,17.1,-8.3,31.80,West,270,2.0,4.0,31,0.00,,,0.00,meteohub,2013-01-19 06:19:00,
2013-01-18 23:24:00,17.4,-8.1,31.80,West,270,2.0,6.0,31,0.00,,,0.00,meteohub,2013-01-19 06:24:00,
2013-01-18 23:30:00,17.8,-9.0,31.80,West,270,3.0,6.0,29,0.00,,,0.00,meteohub,2013-01-19 06:30:00,
2013-01-18 23:36:00,17.4,-8.7,31.80,South,180,2.0,6.0,30,0.00,,,0.00,meteohub,2013-01-19 06:36:00,
2013-01-18 23:41:00,17.4,-9.4,31.80,SW,225,0.0,5.0,29,0.00,,,0.00,meteohub,2013-01-19 06:41:00,
2013-01-18 23:47:00,17.6,-9.9,31.80,SW,225,2.0,4.0,28,0.00,,,0.00,meteohub,2013-01-19 06:47:00,
2013-01-18 23:52:00,18.0,-10.5,31.79,South,180,0.0,4.0,27,0.00,,,0.00,meteohub,2013-01-19 06:52:00,
2013-01-18 23:57:00,17.8,-10.5,31.80,West,270,0.0,4.0,27,0.00,,,0.00,meteohub,2013-01-19 06:57:00,